H1 CPF  2  SGF 2024  2 27  2  058 01 etalon1   
H2  8900103  525    19751 2024  2 26  0  0  0 2024  3  1 23 45  0   900 1 1  0 0 0 1
H9
10 0 60367  41400.00000  0  -7583930.176  19226840.637 -14974067.219
10 0 60367  42300.00000  0  -8579079.585  20600030.412 -12402783.912
10 0 60367  43200.00000  0  -9277332.333  21773499.936  -9591189.221
10 0 60367  44100.00000  0  -9698159.900  22692107.891  -6593899.901
10 0 60367  45000.00000  0  -9872001.907  23307838.656  -3469033.440
10 0 60367  45900.00000  0  -9838721.904  23581846.340   -277087.888
10 0 60367  46800.00000  0  -9645679.814  23486133.052   2920217.509
10 0 60367  47700.00000  0  -9345504.247  23004792.641   6061119.402
10 0 60367  48600.00000  0  -8993657.840  22134769.927   9084983.735
10 0 60367  49500.00000  0  -8645896.661  20886105.175  11933454.509
10 0 60367  50400.00000  0  -8355730.448  19281653.744  14551557.584
10 0 60367  51300.00000  0  -8171988.080  17356292.711  16888740.255
10 0 60367  52200.00000  0  -8136588.473  15155646.713  18899828.555
10 0 60367  53100.00000  0  -8282610.124  12734383.858  20545885.627
10 0 60367  54000.00000  0  -8632738.762  10154150.364  21794956.114
10 0 60367  54900.00000  0  -9198157.897   7481227.034  22622683.277
10 0 60367  55800.00000  0  -9977930.228   4784001.374  23012787.365
10 0 60367  56700.00000  0 -10958896.967   2130357.476  22957395.823
10 0 60367  57600.00000  0 -12116101.818   -414910.457  22457218.059
10 0 60367  58500.00000  0 -13413725.266  -2792556.043  21521559.831
10 0 60367  59400.00000  0 -14806493.149  -4951109.113  20168174.845
10 0 60367  60300.00000  0 -16241504.186  -6848781.951  18422953.856
10 0 60367  61200.00000  0 -17660402.755  -8454974.185  16319454.537
10 0 60367  62100.00000  0 -19001808.055  -9751312.196  13898278.441
10 0 60367  63000.00000  0 -20203899.327 -10732177.463  11206304.645
10 0 60367  63900.00000  0 -21207048.268 -11404700.754   8295792.958
10 0 60367  64800.00000  0 -21956387.067 -11788220.336   5223372.847
10 0 60367  65700.00000  0 -22404202.247 -11913225.137   2048937.226
10 0 60367  66600.00000  0 -22512049.996 -11819827.868  -1165536.877
10 0 60367  67500.00000  0 -22252500.713 -11555832.366  -4357216.539
10 0 60367  68400.00000  0 -21610436.060 -11174477.460  -7463664.150
10 0 60367  69300.00000  0 -20583840.017 -10731956.066 -10424084.611
10 0 60367  70200.00000  0 -19184048.380 -10284816.718 -13180541.407
10 0 60367  71100.00000  0 -17435444.770  -9887360.234 -15679115.006
10 0 60367  72000.00000  0 -15374614.732  -9589146.112 -17870978.384
10 0 60367  72900.00000  0 -13048994.132  -9432716.553 -19713366.597
10 0 60367  73800.00000  0 -10515069.966  -9451636.470 -21170420.076
10 0 60367  74700.00000  0  -7836210.310  -9668934.829 -22213884.479
10 0 60367  75600.00000  0  -5080216.575 -10096013.220 -22823653.533
10 0 60367  76500.00000  0  -2316702.526 -10732067.381 -22988145.128
10 0 60367  77400.00000  0    385589.365 -11564045.441 -22704504.686
10 0 60367  78300.00000  0   2961421.241 -12567142.421 -21978633.750
10 0 60367  79200.00000  0   5351532.843 -13705808.205 -20825045.373
10 0 60367  80100.00000  0   7504852.651 -14935224.292 -19266551.376
10 0 60367  81000.00000  0   9380356.827 -16203184.912 -17333789.803
10 0 60367  81900.00000  0  10948500.921 -17452302.053 -15064603.755
10 0 60367  82800.00000  0  12192168.805 -18622440.198 -12503285.419
10 0 60367  83700.00000  0  13107102.823 -19653278.101  -9699701.327
10 0 60367  84600.00000  0  13701800.593 -20486890.666  -6708316.694
10 0 60367  85500.00000  0  13996887.375 -21070242.790  -3587138.207
10 0 60368      0.00000  0  14023993.094 -21357492.203   -396595.724
10 0 60368    900.00000  0  13824182.914 -21312006.854   2801616.037
10 0 60368   1800.00000  0  13446009.863 -20908013.412   5945714.307
10 0 60368   2700.00000  0  12943271.308 -20131809.930   8975002.185
10 0 60368   3600.00000  0  12372562.706 -18982493.614  11831018.681
10 0 60368   4500.00000  0  11790731.436 -17472173.322  14458644.547
10 0 60368   5400.00000  0  11252335.497 -15625658.368  16807144.564
10 0 60368   6300.00000  0  10807211.528 -13479636.039  18831128.225
10 0 60368   7200.00000  0  10498253.461 -11081369.880  20491412.057
10 0 60368   8100.00000  0  10359492.918  -8486970.882  21755768.512
10 0 60368   9000.00000  0  10414560.895  -5759310.698  22599548.038
10 0 60368   9900.00000  0  10675595.782  -2965659.784  23006162.813
10 0 60368  10800.00000  0  11142643.887   -175145.446  22967422.626
10 0 60368  11700.00000  0  11803579.350   2543867.570  22483715.553
10 0 60368  12600.00000  0  12634549.518   5126368.290  21564028.405
10 0 60368  13500.00000  0  13600929.827   7513156.507  20225804.416
10 0 60368  14400.00000  0  14658751.614   9653064.073  18494638.383
10 0 60368  15300.00000  0  15756545.815  11504848.669  16403812.376
10 0 60368  16200.00000  0  16837527.604  13038680.044  13993678.253
10 0 60368  17100.00000  0  17842032.308  14237154.785  11310896.421
10 0 60368  18000.00000  0  18710100.218  15095796.039   8407543.629
10 0 60368  18900.00000  0  19384101.156  15623015.009   5340105.803
10 0 60368  19800.00000  0  19811287.030  15839533.634   2168375.004
10 0 60368  20700.00000  0  19946161.384  15777292.632  -1045727.612
10 0 60368  21600.00000  0  19752563.026  15477890.196  -4239378.644
10 0 60368  22500.00000  0  19205372.673  14990617.365  -7350103.253
10 0 60368  23400.00000  0  18291766.204  14370175.697 -10317022.994
10 0 60368  24300.00000  0  17011959.034  13674175.578 -13082073.508
10 0 60368  25200.00000  0  15379408.209  12960523.459 -15591165.539
10 0 60368  26100.00000  0  13420461.552  12284812.699 -17795263.984
10 0 60368  27000.00000  0  11173468.642  11697830.841 -19651361.814
10 0 60368  27900.00000  0   8687391.741  11243291.018 -21123328.434
10 0 60368  28800.00000  0   6019975.584  10955885.986 -22182615.169
10 0 60368  29700.00000  0   3235554.769  10859747.360 -22808804.181
10 0 60368  30600.00000  0    402592.552  10967375.017 -22989990.907
10 0 60368  31500.00000  0  -2408945.028  11279081.200 -22722993.927
10 0 60368  32400.00000  0  -5130268.670  11782970.621 -22013390.050
10 0 60368  33300.00000  0  -7696386.606  12455455.281 -20875376.073
10 0 60368  34200.00000  0 -10048558.457  13262279.669 -19331462.174
10 0 60368  35100.00000  0 -12136481.091  14160010.458 -17412005.145
10 0 60368  36000.00000  0 -13920117.361  15097926.119 -15154592.535
10 0 60368  36900.00000  0 -15371095.149  16020224.690 -12603291.454
10 0 60368  37800.00000  0 -16473621.625  16868455.805  -9807777.947
10 0 60368  38700.00000  0 -17224877.891  17584074.824  -6822364.756
10 0 60368  39600.00000  0 -17634882.025  18111011.220  -3704946.774
10 0 60368  40500.00000  0 -17725829.253  18398144.545   -515884.606
10 0 60368  41400.00000  0 -17530939.154  18401585.893   2683152.666
10 0 60368  42300.00000  0 -17092861.093  18086669.815   5830364.046
10 0 60368  43200.00000  0 -16461705.346  17429575.269   8864991.061
10 0 60368  44100.00000  0 -15692782.181  16418509.538  11728469.108
10 0 60368  45000.00000  0 -14844144.005  15054405.579  14365535.295
10 0 60368  45900.00000  0 -13974031.788  13351104.443  16725273.440
10 0 60368  46800.00000  0 -13138330.700  11335014.914  18762078.074
10 0 60368  47700.00000  0 -12388140.503   9044262.422  20436520.697
10 0 60368  48600.00000  0 -11767560.162   6527360.896  21716103.099
10 0 60368  49500.00000  0 -11311777.953   3841460.187  22575884.354
10 0 60368  50400.00000  0 -11045546.844   1050237.898  22998969.841
10 0 60368  51300.00000  0 -10982108.635  -1778479.992  22976852.762
10 0 60368  52200.00000  0 -11122612.942  -4575274.184  22509600.677
10 0 60368  53100.00000  0 -11456057.258  -7271760.265  21605881.963
10 0 60368  54000.00000  0 -11959752.750  -9803182.993  20282829.575
10 0 60368  54900.00000  0 -12600299.401 -12110870.083  18565742.189
10 0 60368  55800.00000  0 -13335032.117 -14144444.446  16487625.767
10 0 60368  56700.00000  0 -14113879.643 -15863702.027  14088581.634
10 0 60368  57600.00000  0 -14881560.579 -17240075.297  11415050.399
10 0 60368  58500.00000  0 -15580024.398 -18257620.006   8518924.369
10 0 60368  59400.00000  0 -16151034.847 -18913481.485   5456544.357
10 0 60368  60300.00000  0 -16538786.161 -19217818.487   2287599.841
10 0 60368  61200.00000  0 -16692438.534 -19193186.922   -926045.737
10 0 60368  62100.00000  0 -16568463.159 -18873408.189  -4121580.426
10 0 60368  63000.00000  0 -16132694.773 -18301969.354  -7236494.170
10 0 60368  63900.00000  0 -15362000.270 -17530024.515 -10209827.238
10 0 60368  64800.00000  0 -14245490.031 -16614083.176 -12983389.519
10 0 60368  65700.00000  0 -12785218.361 -15613485.462 -15502924.098
10 0 60368  66600.00000  0 -10996340.527 -14587774.679 -17719189.763
10 0 60368  67500.00000  0  -8906719.220 -13594080.745 -19588939.195
10 0 60368  68400.00000  0  -6555997.147 -12684627.539 -21075772.298
10 0 60368  69300.00000  0  -3994174.638 -11904472.116 -22150847.251
10 0 60368  70200.00000  0  -1279753.698 -11289571.992 -22793435.445
10 0 60368  71100.00000  0   1522471.947 -10865262.243 -22991310.257
10 0 60368  72000.00000  0   4343887.321 -10645206.121 -22740963.436
10 0 60368  72900.00000  0   7114682.354 -10630861.400 -22047646.733
10 0 60368  73800.00000  0   9766523.125 -10811482.798 -20925240.080
10 0 60368  74700.00000  0  12235157.337 -11164657.353 -19395951.166
10 0 60368  75600.00000  0  14462845.971 -11657347.156 -17489854.469
10 0 60368  76500.00000  0  16400521.235 -12247393.127 -15244280.726
10 0 60368  77400.00000  0  18009583.865 -12885413.562 -12703070.490
10 0 60368  78300.00000  0  19263267.655 -13517015.820  -9915707.639
10 0 60368  79200.00000  0  20147517.429 -14085227.583  -6936350.557
10 0 60368  80100.00000  0  20661347.967 -14533044.129  -3822780.283
10 0 60368  81000.00000  0  20816672.000 -14805985.227   -635286.007
10 0 60368  81900.00000  0  20637607.034 -14854555.731   2564491.034
99